Location: Unspecified
(0.0000°N, 0.0000°E)
Time: 23:20:35
(UTC+00:00)

S-56A Canister/Altair - Pass Details

Date: 09 October 2020
Orbit: 633 x 2499 km, 38.9° (Epoch: 28 October)

Event Time Altitude Azimuth Distance (km) Brightness Sun altitude
Rises 15:34:54 0° 334° (NNW) 6,166 12.3 32.8°
Reaches altitude 10° 15:44:16 10° 5° (N) 5,038 11.6 30.5°
Maximum altitude 15:47:56 11° 20° (NNE) 4,818 11.4 29.6°
Drops below altitude 10° 15:51:26 10° 35° (NE) 4,776 11.3 28.7°
Sets 15:59:16 0° 66° (ENE) 5,329 11.3 26.8°
